Simultaneous Nadir Overpasses (SNOs) Predictions

Prediction of SNOs between GOES-14 and AQUA Satellite Orbit:

Table of predicted SNOs for the next 14.0 days since TLE Epoch: 3/7/2025
Index Date Time (GOES-14) GOES-14 Lat,Lon AQUA Lat,Lon Distance(km) Time Diff (sec)
1 03/07/2025 21:55:20 -0.44,-108.01 -1.06,-110.80 318.66 80
2 03/09/2025 21:38:28 -0.45,-108.02 -0.03,-106.02 227.77 80
3 03/10/2025 09:55:10 0.44,-108.05 0.99,-110.71 301.46 80
4 03/12/2025 09:38:16 0.45,-108.08 0.01,-105.91 246.08 80
5 03/12/2025 21:55:06 -0.43,-108.06 -0.99,-110.63 292.19 80
6 03/14/2025 21:38:12 -0.44,-108.09 0.06,-105.84 256.14 80
7 03/15/2025 09:54:52 0.42,-108.12 0.93,-110.52 272.95 80
8 03/17/2025 09:37:57 0.43,-108.15 -0.07,-105.72 275.86 80
9 03/17/2025 21:54:45 -0.41,-108.13 -0.93,-110.43 262.06 80
10 03/19/2025 21:37:49 -0.42,-108.15 0.15,-105.64 286.88 80
11 03/20/2025 09:54:29 0.40,-108.18 0.88,-110.31 242.46 80
